This demonstration page uses our WeatherBlox Daily Observations layout. Learn more.

Hourly Observations for March 8, 2020

Temp ( °F °C ) Dew Point ( °F °C ) Humidity (%) Winds ( mph kmh ) Pressure ( in mb ) Visibility ( mi km ) Precip ( " mm )
12:15 am 00:15 Clear 32 0 23 -5 69 69 WNW 6 9 30.51 1033 10 16.0934 0 0
12:35 am 00:35 Clear 34 1 25 -4 70 70 NW 6 9 30.52 1034 10 16.0934 0 0
12:55 am 00:55 Clear 36 2 25 -4 65 65 NW 3 6 30.53 1034 10 16.0934 0 0
1:15 am 01:15 Clear 36 2 27 -3 70 70 NW 10 17 30.53 1034 10 16.0934 0 0
1:35 am 01:35 Clear 36 2 27 -3 70 70 NW 8 13 30.53 1034 10 16.0934 0 0
1:55 am 01:55 Clear 36 2 27 -3 70 70 NW 8 13 30.53 1034 10 16.0934 0 0
3:15 am 03:15 Clear 36 2 27 -3 70 70 NW 9 15 30.53 1034 10 16.0934 0 0
3:35 am 03:35 Clear 37 3 27 -3 65 65 NNW 6 9 30.53 1034 10 16.0934 0 0
3:55 am 03:55 Clear 37 3 27 -3 65 65 Calm 30.52 1033 10 16.0934 0 0
4:15 am 04:15 Clear 34 1 25 -4 70 70 Calm 30.53 1034 10 16.0934 0 0
4:35 am 04:35 Clear 36 2 27 -3 70 70 Calm 30.53 1034 10 16.0934 0 0
4:55 am 04:55 Clear 34 1 27 -3 75 75 Calm 30.53 1034 10 16.0934 0 0
5:15 am 05:15 Clear 34 1 25 -4 70 70 Calm 30.54 1034 10 16.0934 0 0
5:35 am 05:35 Clear 32 0 27 -3 80 80 Calm 30.54 1034 10 16.0934 0 0
5:55 am 05:55 Clear 34 1 27 -3 75 75 Calm 30.55 1035 10 16.0934 0 0
6:15 am 06:15 Clear 30 -1 27 -3 86 86 Calm 30.55 1035 10 16.0934 0 0
6:35 am 06:35 Clear 32 0 27 -3 80 80 Calm 30.55 1035 10 16.0934 0 0
6:55 am 06:55 Clear 32 0 25 -4 75 75 Calm 30.56 1035 10 16.0934 0 0
7:15 am 07:15 Clear 28 -2 23 -5 80 80 Calm 30.57 1035 10 16.0934 0 0
7:35 am 07:35 Sunny 28 -2 25 -4 86 86 SSW 3 6 30.58 1035 10 16.0934 0 0
7:55 am 07:55 Sunny 30 -1 25 -4 80 80 S 5 7 30.57 1035 10 16.0934 0 0
8:15 am 08:15 Sunny 30 -1 25 -4 80 80 Calm 30.58 1036 10 16.0934 0 0
8:35 am 08:35 Sunny 32 0 27 -3 80 80 Calm 30.59 1036 10 16.0934 0 0
8:55 am 08:55 Sunny 32 0 28 -2 87 87 Calm 30.59 1036 10 16.0934 0 0
9:15 am 09:15 Sunny 36 2 27 -3 70 70 Calm 30.59 1036 10 16.0934 0 0
9:35 am 09:35 Sunny 39 4 27 -3 61 61 S 3 6 30.58 1035 10 16.0934 0 0
9:55 am 09:55 Sunny 41 5 28 -2 61 61 S 5 7 30.58 1036 10 16.0934 0 0
10:15 am 10:15 Sunny 43 6 27 -3 53 53 Calm 30.59 1036 10 16.0934 0 0
10:35 am 10:35 Sunny 45 7 23 -5 42 42 WSW 3 6 30.58 1036 10 16.0934 0 0
10:55 am 10:55 Sunny 46 8 23 -5 40 40 WSW 5 7 30.58 1036 10 16.0934 0 0
11:15 am 11:15 Sunny 50 10 21 -6 32 32 W 9 15 30.58 1035 10 16.0934 0 0
11:35 am 11:35 Sunny 52 11 21 -6 30 30 SSW 9 15 30.57 1035 10 16.0934 0 0
11:55 am 11:55 Sunny 54 12 21 -6 28 28 WSW 8 13 30.56 1035 10 16.0934 0 0
12:15 pm 12:15 Sunny 54 12 21 -6 28 28 SW 10 17 30.55 1035 10 16.0934 0 0
12:35 pm 12:35 Sunny 55 13 16 -9 21 21 SW 8 13 30.54 1034 10 16.0934 0 0
12:55 pm 12:55 Sunny 55 13 16 -9 21 21 SSW 5 7 30.53 1034 10 16.0934 0 0
1:15 pm 13:15 Sunny 57 14 14 -10 18 18 WSW 8 13 30.53 1034 10 16.0934 0 0
1:35 pm 13:35 Sunny 59 15 16 -9 18 18 SW 5 7 30.51 1033 10 16.0934 0 0
1:55 pm 13:55 Sunny 59 15 14 -10 17 17 SSW 12 19 30.5 1033 10 16.0934 0 0
2:15 pm 14:15 Sunny 59 15 18 -8 20 20 W 8 13 30.49 1032 10 16.0934 0 0
2:35 pm 14:35 Sunny 61 16 19 -7 20 20 WSW 7 11 30.48 1032 10 16.0934 0 0
2:55 pm 14:55 Sunny 61 16 19 -7 20 20 SW 3 6 30.46 1031 10 16.0934 0 0
3:15 pm 15:15 Sunny 61 16 19 -7 20 20 SW 7 11 30.45 1031 10 16.0934 0 0
3:35 pm 15:35 Sunny 63 17 21 -6 20 20 WSW 6 9 30.45 1031 10 16.0934 0 0
3:55 pm 15:55 Sunny 63 17 19 -7 19 19 SSW 8 13 30.44 1031 10 16.0934 0 0
4:15 pm 16:15 Sunny 63 17 19 -7 19 19 SW 7 11 30.43 1030 10 16.0934 0 0
4:35 pm 16:35 Sunny 63 17 19 -7 19 19 SSW 6 9 30.43 1030 10 16.0934 0 0
4:55 pm 16:55 Sunny 63 17 19 -7 19 19 S 12 19 30.42 1030 10 16.0934 0 0
5:15 pm 17:15 Sunny 63 17 19 -7 19 19 S 9 15 30.41 1030 10 16.0934 0 0
5:35 pm 17:35 Sunny 63 17 21 -6 20 20 SSW 9 15 30.41 1030 10 16.0934 0 0
5:55 pm 17:55 Sunny 63 17 21 -6 20 20 S 8 13 30.41 1030 10 16.0934 0 0
6:15 pm 18:15 Sunny 61 16 21 -6 22 22 S 9 15 30.41 1030 10 16.0934 0 0
6:35 pm 18:35 Sunny 61 16 21 -6 22 22 SSW 9 15 30.41 1030 10 16.0934 0 0
6:55 pm 18:55 Sunny 59 15 21 -6 23 23 SSW 8 13 30.41 1030 10 16.0934 0 0
7:15 pm 19:15 Clear 55 13 21 -6 26 26 S 7 11 30.42 1030 10 16.0934 0 0
7:35 pm 19:35 Clear 55 13 21 -6 26 26 S 7 11 30.42 1030 10 16.0934 0 0
7:55 pm 19:55 Clear 55 13 21 -6 26 26 S 7 11 30.42 1030 10 16.0934 0 0
8:15 pm 20:15 Clear 55 13 21 -6 26 26 S 7 11 30.42 1030 10 16.0934 0 0
8:35 pm 20:35 Clear 54 12 23 -5 30 30 S 7 11 30.42 1030 10 16.0934 0 0
8:55 pm 20:55 Clear 52 11 23 -5 32 32 S 8 13 30.42 1030 10 16.0934 0 0
9:15 pm 21:15 Clear 52 11 23 -5 32 32 S 7 11 30.43 1031 10 16.0934 0 0
9:35 pm 21:35 Clear 52 11 23 -5 32 32 S 8 13 30.43 1031 10 16.0934 0 0
9:55 pm 21:55 Clear 52 11 23 -5 32 32 S 8 13 30.43 1031 10 16.0934 0 0
10:15 pm 22:15 Clear 50 10 23 -5 35 35 S 8 13 30.44 1031 10 16.0934 0 0
10:35 pm 22:35 Clear 50 10 23 -5 35 35 S 7 11 30.43 1030 10 16.0934 0 0
10:55 pm 22:55 Clear 48 9 23 -5 37 37 S 7 11 30.43 1030 10 16.0934 0 0
11:15 pm 23:15 Clear 48 9 23 -5 37 37 SSW 6 9 30.43 1030 10 16.0934 0 0
11:35 pm 23:35 Clear 48 9 23 -5 37 37 S 6 9 30.42 1030 10 16.0934 0 0
11:55 pm 23:55 Clear 46 8 23 -5 40 40 SSW 6 9 30.42 1030 10 16.0934 0 0

Powered by AerisWeather